EW8261 Weather Reports


Display with metric or nautical units.
time (UTC)temp
F
wind
direction
speed
MPH
gust
MPH
rain 1hr
in
rain 24hr
in
rain mn
in
humidity
%
barometer
mb
20260510044510 66 36 0.0 0.0 0.00 0.00 0.00 94 1010.9
20260510043014 66 36 0.0 0.0 0.00 0.00 0.00 93 1010.8
20260510041508 67 36 0.0 0.0 0.00 0.00 0.00 92 1010.8
20260510040007 67 36 0.0 0.0 0.00 0.00 0.00 91 1010.8
20260510034507 68 305 0.0 0.0 0.00 0.00 0.00 90 1010.7
20260510033005 68 298 0.0 1.0 0.00 0.00 0.00 90 1010.8
20260510031511 68 53 0.0 0.0 0.00 0.00 0.00 89 1010.6
20260510030004 68 53 0.0 1.0 0.00 0.00 0.00 89 1010.3
20260510024501 69 44 0.0 0.0 0.00 0.00 0.00 87 1010.1
20260510023002 69 47 0.0 1.0 0.00 0.00 0.00 87 1009.8
20260510021502 70 7 0.0 0.0 0.00 0.00 0.00 86 1009.7
20260510020101 70 317 0.0 0.0 0.00 0.00 0.00 86 1009.5
20260510014600 71 317 0.0 0.0 0.00 0.00 0.00 85 1009.3
20260510013100 72 317 0.0 0.0 0.00 0.00 0.00 85 1009.1
20260510011600 73 316 0.0 0.0 0.00 0.00 0.00 84 1009.0
20260510010100 74 316 0.0 0.0 0.00 0.00 0.00 82 1008.8
20260510004601 75 303 0.0 0.0 0.00 0.00 0.00 80 1008.8
20260510003120 76 302 0.0 1.0 0.00 0.00 0.00 78 1008.6
20260510001557 76 55 0.0 0.0 0.00 0.00 0.00 77 1008.4
20260509234604 77 88 0.0 0.0 0.00 0.00 0.00 75 1008.1
20260509233054 78 88 0.0 0.0 0.00 0.00 0.00 76 1008.0
20260509231556 79 88 0.0 0.0 0.00 0.00 0.00 71 1008.0
20260509230059 79 88 0.0 1.0 0.00 0.00 0.00 68 1007.9
20260509224552 80 88 0.0 0.0 0.00 0.00 0.00 66 1007.8
20260509223052 82 31 0.0 1.0 0.00 0.00 0.00 63 1007.7
20260509221551 82 79 0.0 1.0 0.00 0.00 0.00 63 1007.7
20260509220049 83 113 0.0 1.0 0.00 0.00 0.00 57 1007.6
20260509214551 86 113 0.0 1.0 0.00 0.00 0.00 52 1007.6
20260509213047 87 10 0.0 2.0 0.00 0.00 0.00 52 1007.6
20260509211545 86 31 0.0 3.0 0.00 0.00 0.00 53 1007.8
20260509210049 86 304 0.0 5.0 0.00 0.00 0.00 52 1007.7
20260509204542 86 205 0.0 5.0 0.00 0.00 0.00 50 1008.0
20260509203040 87 107 0.0 5.0 0.00 0.00 0.00 50 1008.1
20260509201539 86 68 0.0 9.0 0.00 0.00 0.00 54 1008.3
20260509200035 85 256 1.0 5.0 0.00 0.00 0.00 55 1008.6
20260509194537 85 245 0.0 7.0 0.00 0.00 0.00 55 1008.7
20260509193032 84 92 0.0 6.0 0.00 0.00 0.00 56 1008.8
20260509191532 82 23 0.0 1.0 0.00 0.00 0.00 57 1008.9
20260509190031 83 111 0.0 1.0 0.00 0.00 0.00 58 1009.0
20260509184529 85 354 0.0 2.0 0.00 0.00 0.00 55 1008.9
20260509183028 83 111 0.0 5.0 0.00 0.00 0.00 56 1009.2
20260509181540 82 359 0.0 5.0 0.00 0.00 0.00 60 1009.2
20260509180025 81 115 0.0 1.0 0.00 0.00 0.00 61 1009.2
20260509174524 83 102 0.0 3.0 0.00 0.00 0.00 59 1009.4
20260509173025 82 119 0.0 3.0 0.00 0.00 0.00 60 1009.7
20260509171520 81 106 0.0 4.0 0.00 0.00 0.00 61 1009.6
20260509170019 81 124 0.0 3.0 0.00 0.00 0.00 62 1009.6
20260509164516 80 6 0.0 4.0 0.00 0.00 0.00 62 1009.7
20260509163013 80 257 0.0 1.0 0.00 0.00 0.00 67 1009.5
20260509161511 78 44 0.0 3.0 0.00 0.00 0.00 68 1009.6
20260509160009 78 296 0.0 2.0 0.00 0.00 0.00 69 1009.6
20260509154507 78 23 0.0 2.0 0.00 0.00 0.00 68 1009.7
20260509153005 77 60 0.0 1.0 0.00 0.00 0.00 69 1009.6
20260509151503 77 37 0.0 3.0 0.00 0.00 0.00 70 1009.6
20260509150100 75 34 0.0 1.0 0.00 0.00 0.00 73 1009.8
20260509144557 74 287 0.0 1.0 0.00 0.00 0.00 74 1009.9
20260509143057 72 322 0.0 1.0 0.00 0.00 0.00 77 1009.9
20260509141606 72 217 0.0 0.0 0.00 0.00 0.00 77 1010.0
20260509140057 70 252 0.0 1.0 0.00 0.00 0.00 80 1010.2
20260509134556 69 311 0.0 0.0 0.00 0.00 0.00 82 1010.3
20260509133044 67 265 0.0 0.0 0.00 0.00 0.00 87 1010.4
20260509131540 63 265 0.0 0.0 0.00 0.00 0.00 94 1010.1
20260509130036 59 265 0.0 0.0 0.00 0.00 0.00 98 1010.1
20260509124535 58 265 0.0 0.0 0.00 0.00 0.00 99 1009.9
20260509123034 56 262 0.0 0.0 0.00 0.00 0.00 100 1009.8
20260509121537 55 261 0.0 0.0 0.00 0.00 0.00 99 1009.6
20260509120032 55 261 0.0 0.0 0.00 0.00 0.00 99 1009.5
20260509114532 54 261 0.0 0.0 0.00 0.00 0.00 98 1009.4
20260509113033 55 261 0.0 1.0 0.00 0.00 0.00 98 1009.2
20260509111529 56 261 0.0 1.0 0.00 0.00 0.00 99 1009.0
20260509110033 56 263 0.0 1.0 0.00 0.00 0.00 99 1008.7
20260509104536 55 264 0.0 0.0 0.00 0.00 0.00 98 1008.2
20260509103026 55 264 0.0 0.0 0.00 0.00 0.00 98 1008.1
20260509101532 55 264 0.0 0.0 0.00 0.00 0.00 98 1007.8
20260509100022 56 264 0.0 0.0 0.00 0.00 0.00 98 1007.9
20260509094520 57 264 0.0 0.0 0.00 0.00 0.00 98 1007.9
20260509093026 57 263 0.0 0.0 0.00 0.00 0.00 98 1008.0
20260509091518 57 263 0.0 0.0 0.00 0.00 0.00 97 1008.1
20260509090020 58 263 0.0 0.0 0.00 0.00 0.00 98 1008.1
20260509084524 57 263 0.0 0.0 0.00 0.00 0.00 97 1008.0
20260509083015 57 263 0.0 0.0 0.00 0.00 0.00 97 1008.0
20260509081524 58 263 0.0 0.0 0.00 0.00 0.00 95 1007.9
20260509080026 59 263 0.0 1.0 0.00 0.00 0.00 95 1008.2
20260509074511 59 262 0.0 0.0 0.00 0.00 0.00 95 1008.4
20260509073011 59 262 0.0 1.0 0.00 0.00 0.00 96 1008.5
20260509071509 58 270 0.0 0.0 0.00 0.00 0.00 97 1008.4
20260509070008 58 270 0.0 1.0 0.00 0.00 0.00 96 1008.4
20260509064509 58 270 0.0 0.0 0.00 0.00 0.00 96 1008.7
20260509063003 58 270 0.0 0.0 0.00 0.00 0.00 95 1008.6
20260509061502 59 270 0.0 1.0 0.00 0.00 0.00 95 1008.8
20260509060059 59 259 0.0 0.0 0.00 0.00 0.00 95 1008.9
20260509054603 59 259 0.0 1.0 0.00 0.00 0.00 95 1009.0
20260509053101 60 259 0.0 0.0 0.00 0.00 0.00 94 1009.4
20260509051600 60 259 0.0 0.0 0.00 0.00 0.00 93 1009.6
20260509050050 60 280 0.0 1.0 0.00 0.00 0.00 93 1009.8